Probability
37 35 33 33 37 38 35 32 31 30 28 26 25 23 22 20 18 19 19 19 18 17 13 9 8 10 11 11 9 7 7 7 8 8 7 6 5 5 5 8 8 7 5
37 37 36 35 36 35 33 31 31 30 28 26 25 23 22 20 18 18 19 18 17 15 11 9 9 10 11 11 9 8 7 7 7 7 5 4 4 4 5 7 7 7 7
37 39 40 39 36 34 31 29 29 29 28 26 25 23 22 20 18 17 17 15 13 11 10 8 9 10 11 11 10 8 7 7 7 6 5 4 3 2 3 4 5 6 7
35 37 40 40 37 33 30 27 26 26 25 25 24 23 21 18 17 15 14 12 10 9 9 9 8 10 11 11 9 7 6 6 6 5 4 3 2 1 1 2 3 4 5
29 30 32 35 33 30 27 25 22 21 21 21 21 20 16 13 12 11 10 9 8 9 10 9 8 8 9 8 6 5 5 4 4 3 2 2 1 0 0 1 1 2 2
26 25 25 26 25 22 21 22 20 17 17 18 17 15 12 9 7 6 7 7 9 11 11 10 8 6 4 3 2 2 2 1 1 1 0 0 1 0 0 0 1 1 1
26 25 24 22 19 16 16 18 18 16 16 17 15 12 9 7 4 3 4 6 9 12 12 11 8 4 1 0 0 0 0 0 0 0 0 0 1 0 0 0 0 0 0
25 24 22 19 16 15 15 16 15 14 15 16 14 11 9 7 4 1 2 5 7 8 9 9 7 3 0 0 0 1 1 1 0 0 0 0 0 0 0 0 0 0 0
20 19 17 15 15 15 16 15 14 14 14 14 14 14 12 9 4 1 1 3 5 5 5 5 4 2 0 0 0 1 2 1 0 0 0 0 0 0 0 0 0 0 0
14 14 13 14 14 15 16 16 16 15 14 14 15 16 15 9 4 1 1 2 4 4 4 2 1 0 0 0 0 0 1 1 0 0 0 0 0 0 0 0 0 0 0
14 14 14 13 14 15 18 18 16 15 14 13 15 16 13 7 2 1 1 2 3 4 3 1 0 0 0 0 0 0 0 0 0 0 0 0 0 0 0 0 0 0 0
16 16 15 14 14 15 17 17 15 14 12 11 12 12 10 5 1 0 0 1 2 2 1 0 0 0 0 0 0 0 0 0 0 0 0 0 0 0 0 0 0 0 1
17 17 17 16 16 17 17 15 13 12 10 9 7 7 5 3 1 0 0 0 1 1 0 0 0 0 0 0 0 0 0 0 0 0 0 0 1 1 0 0 0 0 1
17 17 16 16 17 18 18 15 12 9 8 6 4 2 2 2 1 0 0 0 0 0 0 0 0 0 0 0 0 0 0 0 0 0 0 0 1 1 0 0 0 0 1
15 15 14 14 16 16 14 11 9 7 5 3 1 0 0 0 0 0 0 0 0 0 0 0 0 0 0 0 0 0 0 0 0 0 0 0 0 0 0 0 0 0 0
14 13 12 13 13 11 8 5 4 3 2 1 0 0 0 0 0 0 0 0 0 0 0 0 0 0 0 0 0 0 0 0 0 0 0 0 0 0 0 1 1 1 0
14 12 12 11 10 7 3 1 0 0 0 0 0 0 0 0 0 0 0 0 0 0 0 0 0 0 0 0 0 0 1 1 1 1 1 1 1 1 1 1 2 2 1
11 11 10 9 7 5 2 1 0 0 0 0 0 0 0 0 0 0 0 0 0 0 0 0 0 0 0 0 1 1 2 2 2 2 2 2 2 2 2 3 3 2 1
9 9 8 7 5 3 1 1 0 0 0 0 0 0 0 0 0 0 0 0 0 0 0 0 0 0 0 1 2 3 3 3 3 3 3 3 3 3 3 3 3 2 1
7 6 6 5 4 1 0 0 0 0 0 0 0 0 0 0 0 0 0 0 0 0 0 0 0 0 0 1 3 3 3 3 3 3 3 3 3 3 3 3 3 2 1
5 4 3 3 2 1 0 0 0 0 0 0 0 0 0 0 0 0 0 0 0 0 0 0 1 1 1 2 3 3 3 3 2 3 3 3 3 3 2 2 1 1 1
2 2 2 1 1 1 0 0 0 0 0 0 0 0 0 0 0 0 0 0 0 1 1 1 2 3 3 3 3 3 3 2 2 2 3 3 2 1 1 1 0 0 1
1 2 1 0 0 0 0 0 0 0 0 0 0 0 0 0 0 0 1 2 3 3 3 4 5 4 3 3 3 3 2 2 2 2 2 2 1 0 0 0 0 0 0
1 1 1 0 0 0 0 0 0 0 0 0 0 0 0 0 0 1 3 5 6 6 5 5 5 4 3 2 2 1 1 1 1 1 1 1 0 0 0 0 0 0 0
0 0 0 0 0 0 0 0 0 0 0 0 0 0 0 0 1 2 3 4 5 5 4 3 3 3 1 1 1 0 0 0 0 0 0 0 0 0 0 0 0 0 0
0 0 0 0 0 0 0 0 0 0 0 0 0 1 1 1 1 1 1 2 2 3 3 3 2 1 1 1 1 0 0 0 0 0 0 0 0 0 0 0 0 0 0
Wind_Speed
4 4 3 4 4 3 2 3 2 2 2 2 3 3 3 3 3 3 4 3 4 4 4 4 4 4 2 2 2 2 3 3 4 3 2 2 2 2 2 3 4 5 6
3 3 3 3 3 3 3 2 2 2 2 2 3 3 4 3 3 3 4 4 4 4 4 3 3 3 3 2 2 3 3 3 3 4 3 2 3 3 3 4 5 5 4
2 2 2 2 2 2 2 2 2 2 2 3 2 3 4 3 3 4 4 4 4 4 3 3 3 3 3 2 3 3 3 3 3 4 4 3 2 3 3 4 4 3 4
2 2 2 2 2 2 2 2 2 2 3 3 3 3 3 3 3 3 3 3 3 3 3 4 4 4 3 4 3 3 3 3 3 3 3 3 2 2 2 2 3 3 3
2 2 1 2 2 2 2 2 2 2 3 2 3 3 3 2 3 2 3 4 3 3 4 4 4 4 4 4 4 3 3 3 3 3 3 2 2 2 2 2 3 2 3
2 1 1 2 2 2 3 3 2 2 2 3 3 3 3 3 2 2 2 3 3 3 4 4 4 5 5 6 6 6 5 4 4 3 3 3 3 3 2 3 2 2 2
2 2 2 2 2 3 3 3 2 2 2 3 3 3 3 3 3 3 3 4 4 4 4 3 4 3 4 4 5 7 7 8 7 5 4 4 3 2 2 3 3 2 3
2 2 3 3 3 2 2 2 2 2 2 3 4 3 3 4 4 3 4 5 5 4 3 4 4 3 3 3 4 4 4 5 6 6 5 5 5 3 3 4 4 4 4
3 3 3 3 3 2 2 2 2 2 3 4 4 4 4 4 4 4 4 4 4 4 4 4 4 3 3 3 3 3 4 4 5 7 6 6 6 5 3 2 3 3 4
2 2 2 2 2 3 3 3 2 3 4 4 4 4 4 4 5 6 5 3 3 3 3 3 3 3 4 4 4 3 4 4 4 4 4 5 6 6 7 6 5 4 3
1 1 1 1 1 2 2 2 2 3 4 4 4 4 4 4 5 7 6 3 3 3 3 3 2 4 4 5 5 4 5 4 3 4 4 4 4 5 5 6 6 5 4
1 1 0 1 2 2 1 2 3 3 4 5 4 3 3 3 4 5 7 7 6 4 4 3 2 5 5 6 6 6 5 4 3 4 4 4 4 5 5 5 6 6 5
1 1 1 1 2 1 2 3 3 3 3 3 2 2 2 1 2 5 6 7 8 5 4 4 4 5 6 6 8 7 5 4 4 4 5 5 4 4 3 3 4 5 5
2 1 1 2 2 1 1 2 2 2 2 2 2 2 2 1 0 0 1 2 3 3 4 4 5 6 6 5 5 5 5 5 4 5 4 4 3 3 3 3 3 3 3
2 1 2 3 2 2 2 1 1 1 1 2 2 2 2 2 1 2 2 2 2 2 2 3 3 3 4 4 4 4 4 4 5 4 4 4 3 3 3 3 3 3 4
2 2 2 2 2 2 1 1 1 1 1 2 2 2 2 2 2 2 3 4 4 2 2 3 4 4 4 4 4 4 4 4 4 4 4 3 3 3 3 3 3 4 4
3 2 2 2 2 2 2 1 1 2 2 3 4 5 5 5 4 4 4 3 4 3 3 4 4 4 4 4 3 3 3 3 3 3 3 3 3 3 3 3 3 3 3
3 2 3 3 3 2 2 2 2 2 1 2 3 6 7 7 6 5 3 1 3 3 4 4 4 4 4 3 3 3 3 2 2 2 3 3 3 3 3 3 3 4 4
3 3 2 3 3 3 3 3 3 3 2 1 1 2 5 6 5 5 3 3 4 4 4 4 4 4 4 3 3 2 2 2 2 2 3 3 3 3 3 3 4 5 5
2 3 3 3 3 3 3 3 3 3 2 2 1 1 1 2 2 3 4 4 4 4 4 3 3 3 3 2 2 2 2 2 2 2 2 2 3 3 4 4 4 4 4
3 2 3 3 3 3 3 3 3 3 3 3 2 2 3 3 3 3 2 3 3 3 3 3 3 3 3 2 2 2 2 2 2 2 2 2 3 3 3 4 4 4 3
3 2 2 3 3 3 3 3 3 3 3 3 2 2 3 3 3 2 2 2 2 2 2 2 3 2 2 2 2 2 2 2 2 2 2 3 3 4 4 4 3 3 3
4 3 3 3 3 3 4 3 3 3 3 3 3 3 3 3 3 3 3 3 2 2 2 2 3 2 2 2 2 2 2 2 2 3 3 3 3 4 4 4 4 3 3
4 4 4 3 2 3 3 4 4 4 4 4 3 3 3 2 3 3 4 3 3 2 2 2 2 3 3 2 1 1 2 2 3 3 3 3 4 4 4 3 4 4 4
5 4 3 3 3 3 3 3 4 4 4 4 3 3 3 3 3 3 4 4 5 4 4 3 2 2 3 2 2 1 1 2 2 3 3 3 4 4 4 4 4 4 4
5 4 3 3 3 3 3 3 3 4 4 4 4 4 4 4 4 4 4 4 5 4 4 3 3 3 3 2 1 0 0 1 2 3 3 3 4 4 4 4 5 4 4
Wind_Direction
175 175 168 163 170 178 178 190 189 182 188 189 195 209 212 216 222 220 233 223 214 218 226 221 222 235 245 252 255 254 251 247 260 266 253 233 223 241 218 225 216 203 204
177 167 161 156 162 180 190 187 184 188 198 208 208 216 226 221 218 221 236 235 224 225 229 228 224 234 241 248 254 258 261 256 253 265 264 240 232 219 224 233 235 223 211
171 162 151 160 171 186 198 203 202 200 201 209 217 229 230 222 221 228 232 239 235 232 225 231 233 235 235 242 253 258 262 265 250 252 258 241 228 223 227 250 251 238 235
154 156 159 179 185 198 209 206 205 207 215 216 221 227 238 234 236 241 237 241 239 237 229 229 233 227 227 243 248 249 254 265 266 254 249 241 233 229 215 235 255 239 237
139 147 174 191 188 194 204 202 208 214 220 221 232 236 235 228 242 237 253 248 244 245 241 236 238 226 227 233 246 248 257 257 262 262 253 245 241 233 228 235 247 245 245
146 173 182 186 186 193 198 199 208 214 220 228 239 242 240 243 218 216 248 269 260 247 246 245 238 223 219 220 229 236 235 245 253 259 261 250 243 241 247 251 254 254 260
167 182 177 184 197 205 213 200 202 213 234 249 254 245 231 225 214 223 240 260 259 251 250 245 252 233 216 226 226 232 238 239 235 238 258 267 265 252 257 267 259 257 256
181 192 189 191 195 207 211 198 210 230 242 255 259 252 237 224 213 228 251 247 251 247 240 233 233 232 236 238 239 232 233 234 232 231 238 250 258 250 238 246 252 257 255
200 202 203 203 195 207 212 202 216 228 239 244 250 244 233 212 210 217 234 256 249 249 246 241 227 221 229 225 229 241 248 250 248 243 240 246 250 250 248 265 257 246 261
223 218 217 210 207 222 219 208 221 235 244 247 245 241 235 209 203 207 215 246 261 261 242 230 213 213 222 210 221 237 247 256 267 269 261 261 250 244 232 225 235 240 255
287 248 232 215 234 231 219 215 233 243 251 254 250 242 233 211 204 207 208 229 255 266 260 243 210 194 218 223 229 237 243 252 261 256 254 248 244 238 225 219 221 224 236
321 298 263 231 253 234 213 231 244 251 255 253 249 246 228 205 205 204 212 226 245 260 259 261 230 208 219 227 229 234 240 252 253 255 253 252 245 238 232 221 215 215 223
340 326 302 271 270 251 236 244 247 242 259 265 252 248 243 213 203 200 212 236 245 249 268 283 283 245 238 235 230 227 225 233 239 246 249 250 248 246 241 232 220 220 229
326 311 286 267 263 254 254 262 262 262 266 281 287 291 291 249 142 172 238 250 257 250 265 278 265 246 239 239 234 226 222 230 236 246 254 255 254 251 247 241 232 222 232
305 293 276 269 263 245 240 272 275 274 244 249 274 283 290 299 279 223 233 249 266 290 301 270 256 244 233 229 231 225 221 224 236 245 251 257 253 248 247 236 229 227 233
305 294 289 287 283 272 250 275 334 260 214 222 227 247 273 257 243 236 239 242 239 233 250 262 262 254 243 241 237 231 227 228 234 242 250 252 254 256 254 240 227 229 235
319 305 296 297 294 284 278 252 265 302 294 269 245 238 239 255 261 262 264 264 255 213 229 253 259 262 258 251 250 244 242 237 232 241 243 247 250 251 251 249 247 243 244
321 308 304 304 305 291 286 279 264 253 249 268 253 235 233 240 246 254 258 284 269 234 239 250 257 262 266 264 264 264 260 247 230 233 241 245 246 246 246 240 238 242 245
320 317 316 312 303 298 294 287 282 283 269 250 255 240 234 233 235 236 211 229 254 260 259 258 263 267 266 263 264 269 270 266 256 241 243 245 241 242 247 247 245 248 245
317 322 312 303 296 296 297 295 292 291 298 287 271 280 250 243 242 222 215 231 251 265 273 276 277 277 278 281 280 279 278 277 283 275 268 260 252 248 247 248 247 246 243
319 316 286 286 297 304 303 301 301 296 299 303 306 295 283 268 261 247 237 242 255 263 274 285 288 290 288 286 291 292 285 277 284 292 290 281 271 258 248 246 247 245 241
306 301 299 304 306 313 312 301 301 304 305 304 297 285 279 287 297 303 293 273 264 265 279 288 293 295 309 305 299 292 291 291 287 284 284 284 279 274 266 253 247 243 237
293 298 295 296 308 313 301 306 312 313 310 310 314 313 309 317 331 330 315 313 307 301 304 301 297 301 314 310 311 312 311 310 297 279 269 270 277 278 272 264 252 241 237
296 293 295 300 305 306 313 323 327 329 324 325 324 319 318 319 321 322 324 326 320 317 318 321 326 334 331 328 327 335 348 335 318 302 287 277 276 278 274 265 255 243 236
299 300 308 314 317 318 325 328 336 337 335 334 332 330 328 334 342 342 346 341 334 336 343 348 351 341 322 320 324 333 322 318 313 310 297 279 273 274 275 270 262 254 245
312 316 320 319 320 325 337 341 342 343 341 342 347 349 348 350 350 352 351 348 340 340 344 347 348 350 346 344 349 25 213 303 312 306 292 276 270 273 276 274 270 260 247